AUA984 ENTC-LOWW

Flight info

Callsign AUA984
Flight time 3h 3m
Altitude 37000
Route AMIMO DCT PETEV DCT PENOR DCT BEZMI DCT ATMIR DCT DESEN/N0439F380 DCT MIKOV MIKOV8W
Aircraft A20N/M-SDE2E3FGHIRWXY/LB1

Departure

Time 2026-04-26 07:48
Airport Tromsø Airport (ENTC)

Arrival

Time 2026-04-26 10:51
Airport Vienna International Airport (LOWW)
Time Latitude Longitude Altitude Speed Heading
2026-04-26 07:28 69.67884 18.90857 34 ft 0 kts 283°
2026-04-26 07:39 69.67882 18.90880 34 ft 3 kts 283°
2026-04-26 07:40 69.67878 18.90938 34 ft 3 kts 283°
2026-04-26 07:40 69.67873 18.90996 34 ft 3 kts 283°
2026-04-26 07:40 69.67869 18.91054 32 ft 3 kts 283°
2026-04-26 07:40 69.67864 18.91112 34 ft 3 kts 283°
2026-04-26 07:41 69.67862 18.91170 33 ft 3 kts 225°
2026-04-26 07:41 69.67879 18.91203 32 ft 3 kts 193°
2026-04-26 07:41 69.67891 18.91212 33 ft 0 kts 195°
2026-04-26 07:42 69.67888 18.91210 33 ft 2 kts 195°
2026-04-26 07:42 69.67851 18.91182 31 ft 9 kts 195°
2026-04-26 07:43 69.67762 18.91120 34 ft 17 kts 193°
2026-04-26 07:43 69.67663 18.91053 34 ft 0 kts 193°
2026-04-26 07:43 69.67645 18.91084 34 ft 7 kts 142°
2026-04-26 07:43 69.67638 18.91133 35 ft 0 kts 105°
2026-04-26 07:44 69.67637 18.91138 35 ft 1 kts 105°
2026-04-26 07:44 69.67630 18.91208 36 ft 6 kts 105°
2026-04-26 07:44 69.67611 18.91345 40 ft 9 kts 130°
2026-04-26 07:45 69.67539 18.91366 39 ft 15 kts 194°
2026-04-26 07:45 69.67412 18.91274 37 ft 23 kts 193°
2026-04-26 07:45 69.67280 18.91241 33 ft 5 kts 169°
2026-04-26 07:45 69.67258 18.91205 34 ft 2 kts 260°
2026-04-26 07:46 69.67274 18.91174 33 ft 7 kts 340°
2026-04-26 07:46 69.67323 18.91213 34 ft 7 kts 31°
2026-04-26 07:46 69.67331 18.91221 34 ft 0 kts 20°
2026-04-26 07:46 69.67332 18.91221 34 ft 0 kts 19°
2026-04-26 07:47 69.67344 18.91232 35 ft 4 kts 17°
2026-04-26 07:47 69.67556 18.91370 41 ft 71 kts 13°
2026-04-26 07:47 69.68283 18.91852 30 ft 139 kts 13°
2026-04-26 07:47 69.69365 18.92595 324 ft 167 kts 13°
2026-04-26 07:48 69.70556 18.93381 891 ft 186 kts 12°
2026-04-26 07:48 69.71888 18.94182 1502 ft 205 kts 11°
2026-04-26 07:48 69.73340 18.95106 2200 ft 219 kts 11°
2026-04-26 07:48 69.74837 18.96118 3075 ft 222 kts 12°
2026-04-26 07:49 69.76358 18.96930 3952 ft 223 kts 358°
2026-04-26 07:49 69.77850 18.95787 4777 ft 226 kts 328°
2026-04-26 07:49 69.78940 18.92552 5640 ft 230 kts 299°
2026-04-26 07:50 69.79760 18.83479 7310 ft 237 kts 284°
2026-04-26 07:50 69.80114 18.78799 8128 ft 240 kts 284°
2026-04-26 07:50 69.80478 18.74063 8939 ft 243 kts 284°
2026-04-26 07:50 69.80581 18.69177 9731 ft 248 kts 261°
2026-04-26 07:51 69.79866 18.64601 10431 ft 256 kts 232°
2026-04-26 07:51 69.78448 18.61395 11129 ft 264 kts 212°
2026-04-26 07:51 69.76843 18.58824 11689 ft 274 kts 211°
2026-04-26 07:51 69.75072 18.56027 11955 ft 298 kts 211°
2026-04-26 07:52 69.73214 18.53076 12223 ft 320 kts 211°
2026-04-26 07:52 69.71202 18.49857 12558 ft 338 kts 211°
2026-04-26 07:52 69.69076 18.46838 13298 ft 344 kts 205°
2026-04-26 07:52 69.66827 18.44309 14013 ft 349 kts 203°
2026-04-26 07:53 69.64538 18.41824 14675 ft 354 kts 203°
2026-04-26 07:53 69.62229 18.39222 15332 ft 359 kts 204°
2026-04-26 07:53 69.59903 18.36495 15996 ft 364 kts 204°
2026-04-26 07:53 69.57554 18.33679 16648 ft 368 kts 205°
2026-04-26 07:54 69.55179 18.30806 17279 ft 373 kts 205°
2026-04-26 07:54 69.52775 18.27896 17909 ft 378 kts 204°
2026-04-26 07:54 69.50334 18.24949 18484 ft 382 kts 204°
2026-04-26 07:54 69.47883 18.22002 19086 ft 384 kts 204°
2026-04-26 07:55 69.45402 18.19029 19667 ft 388 kts 204°
2026-04-26 07:55 69.42907 18.16046 20257 ft 391 kts 204°
2026-04-26 07:55 69.40392 18.13047 20834 ft 394 kts 204°
2026-04-26 07:55 69.37855 18.10033 21403 ft 397 kts 204°
2026-04-26 07:56 69.35298 18.07001 21955 ft 400 kts 204°
2026-04-26 07:56 69.32719 18.03952 22512 ft 403 kts 204°
2026-04-26 07:56 69.30114 18.00880 23066 ft 406 kts 204°
2026-04-26 07:56 69.27494 17.97799 23594 ft 410 kts 203°
2026-04-26 07:57 69.24846 17.94693 24027 ft 413 kts 204°
2026-04-26 07:57 69.22182 17.91578 24445 ft 416 kts 204°
2026-04-26 07:57 69.19501 17.88451 24841 ft 420 kts 204°
2026-04-26 07:57 69.16781 17.85287 25220 ft 424 kts 204°
2026-04-26 07:58 69.14077 17.82150 25593 ft 428 kts 204°
2026-04-26 07:58 69.11276 17.78909 25974 ft 432 kts 204°
2026-04-26 07:58 69.08487 17.75690 26349 ft 435 kts 205°
2026-04-26 07:58 69.05671 17.72453 26701 ft 439 kts 205°
2026-04-26 07:59 69.02831 17.69195 27045 ft 443 kts 205°
2026-04-26 07:59 68.99966 17.65920 27389 ft 447 kts 205°
2026-04-26 07:59 68.97109 17.62663 27701 ft 450 kts 205°
2026-04-26 07:59 68.94197 17.59353 28030 ft 454 kts 205°
2026-04-26 08:00 68.91261 17.56023 28322 ft 457 kts 205°
2026-04-26 08:00 68.88303 17.52678 28611 ft 461 kts 206°
2026-04-26 08:00 68.85314 17.49311 28905 ft 464 kts 206°
2026-04-26 08:00 68.82311 17.45935 29184 ft 468 kts 206°
2026-04-26 08:01 68.79284 17.42544 29455 ft 471 kts 206°
2026-04-26 08:01 68.76227 17.39128 29736 ft 475 kts 206°
2026-04-26 08:01 68.73154 17.35704 30000 ft 478 kts 206°
2026-04-26 08:01 68.70062 17.32269 30256 ft 480 kts 206°
2026-04-26 08:02 68.66948 17.28819 30524 ft 483 kts 206°
2026-04-26 08:02 68.63832 17.25377 30788 ft 485 kts 206°
2026-04-26 08:02 68.60686 17.21914 31060 ft 487 kts 206°
2026-04-26 08:02 68.57532 17.18453 31376 ft 487 kts 206°
2026-04-26 08:03 68.54378 17.15001 31711 ft 487 kts 206°
2026-04-26 08:03 68.51237 17.11574 32040 ft 487 kts 206°
2026-04-26 08:03 68.48083 17.08143 32354 ft 487 kts 206°
2026-04-26 08:03 68.44934 17.04726 32661 ft 487 kts 206°
2026-04-26 08:04 68.41784 17.01319 32983 ft 487 kts 206°
2026-04-26 08:04 68.38676 16.97965 33280 ft 487 kts 206°
2026-04-26 08:04 68.35477 16.94523 33583 ft 487 kts 206°
2026-04-26 08:04 68.32368 16.91188 33880 ft 487 kts 206°
2026-04-26 08:05 68.29217 16.87818 34134 ft 487 kts 205°
2026-04-26 08:05 68.26067 16.84460 34375 ft 486 kts 205°
2026-04-26 08:05 68.22910 16.81105 34600 ft 487 kts 205°
2026-04-26 08:05 68.19767 16.77774 34822 ft 486 kts 205°
2026-04-26 08:06 68.16618 16.74446 35031 ft 486 kts 205°
2026-04-26 08:06 68.13467 16.71127 35252 ft 486 kts 205°
2026-04-26 08:06 68.10318 16.67819 35464 ft 486 kts 205°
2026-04-26 08:06 68.08190 16.65588 35592 ft 486 kts 205°
2026-04-26 08:07 68.05040 16.62296 35779 ft 486 kts 205°
2026-04-26 08:07 68.01891 16.59014 35949 ft 486 kts 205°
2026-04-26 08:07 67.98741 16.55744 36150 ft 486 kts 205°
2026-04-26 08:07 67.95627 16.52519 36348 ft 485 kts 205°
2026-04-26 08:08 67.92442 16.49246 36546 ft 486 kts 203°
2026-04-26 08:08 67.89192 16.46614 36718 ft 489 kts 196°
2026-04-26 08:08 67.85846 16.44991 36874 ft 491 kts 189°
2026-04-26 08:08 67.82424 16.44429 36939 ft 494 kts 181°
2026-04-26 08:09 67.75549 16.45127 36946 ft 494 kts 180°
2026-04-26 08:09 67.68670 16.45805 36950 ft 494 kts 180°
2026-04-26 08:10 67.61835 16.46418 36950 ft 494 kts 180°
2026-04-26 08:10 67.54958 16.47021 36956 ft 495 kts 180°
2026-04-26 08:11 67.48082 16.47621 36954 ft 494 kts 180°
2026-04-26 08:11 67.41208 16.48218 36953 ft 494 kts 180°
2026-04-26 08:12 67.34328 16.48811 36953 ft 494 kts 180°
2026-04-26 08:12 67.27490 16.49397 36951 ft 494 kts 180°
2026-04-26 08:13 67.20601 16.49984 36950 ft 495 kts 180°
2026-04-26 08:13 67.13716 16.50567 36956 ft 495 kts 180°
2026-04-26 08:14 67.06827 16.51147 36955 ft 495 kts 180°
2026-04-26 08:14 66.99933 16.51724 36958 ft 496 kts 180°
2026-04-26 08:15 66.93032 16.52299 36963 ft 496 kts 180°
2026-04-26 08:15 66.86116 16.52872 36960 ft 497 kts 180°
2026-04-26 08:16 66.79199 16.53441 36954 ft 498 kts 180°
2026-04-26 08:16 66.72265 16.54008 36966 ft 498 kts 180°
2026-04-26 08:17 66.65331 16.54573 36958 ft 499 kts 180°
2026-04-26 08:17 66.58389 16.55135 36961 ft 499 kts 180°
2026-04-26 08:18 66.51439 16.55694 36968 ft 499 kts 180°
2026-04-26 08:18 66.44491 16.56250 36973 ft 500 kts 180°
2026-04-26 08:19 66.37536 16.56804 36976 ft 500 kts 180°
2026-04-26 08:19 66.30615 16.57351 36983 ft 500 kts 180°
2026-04-26 08:20 66.23654 16.57900 36986 ft 501 kts 180°
2026-04-26 08:20 66.16688 16.58445 36990 ft 501 kts 180°
2026-04-26 08:21 66.09719 16.58988 36986 ft 501 kts 180°
2026-04-26 08:21 66.02741 16.59528 36982 ft 501 kts 180°
2026-04-26 08:22 65.95761 16.60066 36976 ft 501 kts 180°
2026-04-26 08:22 65.88788 16.60600 36979 ft 501 kts 180°
2026-04-26 08:23 65.81805 16.61132 36977 ft 501 kts 180°
2026-04-26 08:23 65.74866 16.61657 36984 ft 502 kts 180°
2026-04-26 08:24 65.67884 16.62183 36983 ft 502 kts 180°
2026-04-26 08:24 65.60900 16.62707 36985 ft 502 kts 180°
2026-04-26 08:25 65.53906 16.63228 36986 ft 502 kts 180°
2026-04-26 08:25 65.46916 16.63746 36984 ft 502 kts 180°
2026-04-26 08:26 65.39926 16.64262 36983 ft 503 kts 180°
2026-04-26 08:26 65.32925 16.64775 36981 ft 503 kts 180°
2026-04-26 08:27 65.25937 16.65285 36979 ft 503 kts 180°
2026-04-26 08:27 65.18929 16.65793 36983 ft 503 kts 180°
2026-04-26 08:28 65.11971 16.66296 36983 ft 504 kts 180°
2026-04-26 08:28 65.04962 16.66799 36986 ft 504 kts 180°
2026-04-26 08:29 64.97941 16.67301 36987 ft 504 kts 180°
2026-04-26 08:29 64.90924 16.67800 36985 ft 504 kts 180°
2026-04-26 08:30 64.83897 16.68297 36973 ft 505 kts 180°
2026-04-26 08:30 64.76876 16.68790 36959 ft 505 kts 180°
2026-04-26 08:31 64.69855 16.69282 36950 ft 505 kts 180°
2026-04-26 08:31 64.62826 16.69771 36941 ft 505 kts 180°
2026-04-26 08:32 64.55798 16.70258 36939 ft 505 kts 180°
2026-04-26 08:32 64.48787 16.70740 36944 ft 505 kts 180°
2026-04-26 08:33 64.41760 16.71222 36957 ft 504 kts 180°
2026-04-26 08:33 64.34781 16.71698 36970 ft 504 kts 180°
2026-04-26 08:34 64.27764 16.72174 36978 ft 504 kts 180°
2026-04-26 08:34 64.20746 16.72647 36993 ft 504 kts 180°
2026-04-26 08:35 64.13727 16.73119 36993 ft 505 kts 180°
2026-04-26 08:35 64.06699 16.73589 36993 ft 505 kts 180°
2026-04-26 08:36 63.99676 16.74056 36989 ft 505 kts 180°
2026-04-26 08:36 63.92652 16.74520 36991 ft 505 kts 180°
2026-04-26 08:37 63.85616 16.74983 36994 ft 505 kts 180°
2026-04-26 08:37 63.78624 16.75441 36995 ft 505 kts 181°
2026-04-26 08:38 63.71550 16.75902 36993 ft 506 kts 181°
2026-04-26 08:38 63.64550 16.76355 37001 ft 506 kts 181°
2026-04-26 08:39 63.57500 16.76810 36995 ft 506 kts 181°
2026-04-26 08:39 63.50455 16.77263 37008 ft 507 kts 181°
2026-04-26 08:40 63.43408 16.77713 37001 ft 507 kts 181°
2026-04-26 08:40 63.36356 16.78161 37011 ft 507 kts 181°
2026-04-26 08:41 63.29301 16.78608 37000 ft 507 kts 181°
2026-04-26 08:41 63.22235 16.79053 37010 ft 507 kts 181°
2026-04-26 08:42 63.15172 16.79495 37000 ft 508 kts 181°
2026-04-26 08:42 63.08146 16.79933 37013 ft 508 kts 181°
2026-04-26 08:43 63.01030 16.80374 37008 ft 508 kts 181°
2026-04-26 08:43 62.93959 16.80811 37011 ft 508 kts 181°
2026-04-26 08:44 62.86884 16.81246 37013 ft 509 kts 181°
2026-04-26 08:44 62.79852 16.81677 37013 ft 509 kts 181°
2026-04-26 08:45 62.72753 16.82109 37014 ft 509 kts 181°
2026-04-26 08:45 62.65664 16.82538 37014 ft 510 kts 181°
2026-04-26 08:46 62.58571 16.82966 37011 ft 510 kts 181°
2026-04-26 08:46 62.51466 16.83392 37007 ft 510 kts 181°
2026-04-26 08:47 62.44364 16.83816 37012 ft 511 kts 181°
2026-04-26 08:47 62.38455 16.84167 37010 ft 511 kts 181°
2026-04-26 08:48 62.31345 16.84587 37012 ft 511 kts 181°
2026-04-26 08:48 62.24220 16.85007 37015 ft 512 kts 181°
2026-04-26 08:49 62.17087 16.85426 37019 ft 512 kts 181°
2026-04-26 08:49 62.09956 16.85842 37017 ft 513 kts 181°
2026-04-26 08:50 62.02818 16.86256 37019 ft 513 kts 181°
2026-04-26 08:50 61.95666 16.86670 37021 ft 514 kts 181°
2026-04-26 08:51 61.84980 16.87284 37026 ft 515 kts 181°
2026-04-26 08:52 61.77815 16.87693 37026 ft 515 kts 181°
2026-04-26 08:52 61.70637 16.88101 37030 ft 516 kts 181°
2026-04-26 08:53 61.63453 16.88508 37037 ft 516 kts 181°
2026-04-26 08:53 61.56279 16.88913 37038 ft 516 kts 181°
2026-04-26 08:54 61.49086 16.89316 37056 ft 516 kts 181°
2026-04-26 08:54 61.41896 16.89717 37053 ft 517 kts 181°
2026-04-26 08:55 61.34705 16.90117 37047 ft 517 kts 181°
2026-04-26 08:55 61.27512 16.90515 37046 ft 517 kts 181°
2026-04-26 08:56 61.20367 16.90908 37049 ft 517 kts 181°
2026-04-26 08:56 61.13128 16.91304 37051 ft 517 kts 181°
2026-04-26 08:57 61.05937 16.91697 37049 ft 517 kts 181°
2026-04-26 08:57 60.98756 16.92087 37045 ft 517 kts 181°
2026-04-26 08:58 60.91617 16.92473 37050 ft 517 kts 181°
2026-04-26 08:58 60.84422 16.92860 37048 ft 517 kts 181°
2026-04-26 08:59 60.77233 16.93246 37040 ft 517 kts 181°
2026-04-26 08:59 60.70044 16.93629 37045 ft 517 kts 181°
2026-04-26 09:00 60.62846 16.94010 37048 ft 517 kts 181°
2026-04-26 09:00 60.55654 16.94390 37051 ft 517 kts 181°
2026-04-26 09:01 60.48460 16.94768 37052 ft 517 kts 181°
2026-04-26 09:01 60.41257 16.95145 37056 ft 517 kts 181°
2026-04-26 09:02 60.34059 16.95520 37060 ft 517 kts 181°
2026-04-26 09:02 60.26860 16.95894 37060 ft 517 kts 181°
2026-04-26 09:03 60.19652 16.96267 37061 ft 517 kts 181°
2026-04-26 09:03 60.12492 16.96635 37065 ft 517 kts 181°
2026-04-26 09:04 60.05301 16.97004 37064 ft 517 kts 181°
2026-04-26 09:04 59.98094 16.97371 37063 ft 517 kts 181°
2026-04-26 09:05 59.90899 16.97737 37063 ft 517 kts 181°
2026-04-26 09:05 59.83704 16.98101 37073 ft 517 kts 181°
2026-04-26 09:06 59.76513 16.98464 37082 ft 517 kts 181°
2026-04-26 09:06 59.69324 16.98824 37084 ft 517 kts 181°
2026-04-26 09:07 59.62130 16.99184 37087 ft 516 kts 181°
2026-04-26 09:07 59.54948 16.99541 37085 ft 516 kts 181°
2026-04-26 09:08 59.47767 16.99897 37084 ft 516 kts 181°
2026-04-26 09:08 59.40578 17.00253 37076 ft 516 kts 181°
2026-04-26 09:09 59.33398 17.00606 37073 ft 516 kts 181°
2026-04-26 09:09 59.26218 17.00957 37072 ft 516 kts 181°
2026-04-26 09:10 59.19040 17.01307 37082 ft 516 kts 182°
2026-04-26 09:10 59.11855 17.01634 37072 ft 516 kts 182°
2026-04-26 09:11 59.04669 17.01959 37083 ft 516 kts 182°
2026-04-26 09:11 58.97539 17.02283 37084 ft 516 kts 182°
2026-04-26 09:12 58.90363 17.02610 37079 ft 516 kts 182°
2026-04-26 09:12 58.83187 17.02936 37077 ft 516 kts 182°
2026-04-26 09:13 58.76011 17.03260 37079 ft 516 kts 182°
2026-04-26 09:13 58.68842 17.03581 37075 ft 516 kts 182°
2026-04-26 09:14 58.61660 17.03902 37080 ft 516 kts 182°
2026-04-26 09:14 58.54486 17.04222 37082 ft 515 kts 182°
2026-04-26 09:15 58.47315 17.04540 37088 ft 515 kts 182°
2026-04-26 09:15 58.40528 17.04839 37093 ft 515 kts 182°
2026-04-26 09:16 58.32977 17.05171 37092 ft 515 kts 182°
2026-04-26 09:16 58.25798 17.05485 37093 ft 515 kts 183°
2026-04-26 09:17 58.18610 17.05798 37095 ft 516 kts 183°
2026-04-26 09:17 58.11435 17.06109 37098 ft 516 kts 183°
2026-04-26 09:18 58.04259 17.06420 37106 ft 516 kts 183°
2026-04-26 09:18 57.97079 17.06729 37111 ft 516 kts 183°
2026-04-26 09:19 57.89888 17.07038 37114 ft 516 kts 183°
2026-04-26 09:19 57.82703 17.07345 37120 ft 517 kts 183°
2026-04-26 09:20 57.75506 17.07651 37125 ft 517 kts 183°
2026-04-26 09:20 57.68356 17.07954 37128 ft 517 kts 183°
2026-04-26 09:21 57.61164 17.08257 37130 ft 517 kts 183°
2026-04-26 09:21 57.53963 17.08560 37126 ft 517 kts 183°
2026-04-26 09:22 57.46762 17.08861 37135 ft 517 kts 183°
2026-04-26 09:22 57.39571 17.09162 37137 ft 517 kts 183°
2026-04-26 09:23 57.32382 17.09460 37144 ft 517 kts 183°
2026-04-26 09:23 57.25195 17.09758 37139 ft 516 kts 183°
2026-04-26 09:24 57.18010 17.10054 37137 ft 516 kts 183°
2026-04-26 09:24 57.10870 17.10347 37145 ft 516 kts 183°
2026-04-26 09:25 57.03692 17.10641 37143 ft 516 kts 183°
2026-04-26 09:25 56.96515 17.10933 37143 ft 516 kts 183°
2026-04-26 09:26 56.89338 17.11224 37141 ft 516 kts 183°
2026-04-26 09:26 56.82162 17.11514 37145 ft 516 kts 183°
2026-04-26 09:27 56.74977 17.11804 37147 ft 516 kts 183°
2026-04-26 09:27 56.67796 17.12092 37148 ft 516 kts 184°
2026-04-26 09:28 56.60612 17.12379 37152 ft 516 kts 184°
2026-04-26 09:28 56.54636 17.12617 37152 ft 517 kts 184°
2026-04-26 09:29 56.47435 17.12903 37155 ft 517 kts 184°
2026-04-26 09:29 56.40237 17.13188 37161 ft 517 kts 184°
2026-04-26 09:30 56.33034 17.13471 37165 ft 518 kts 184°
2026-04-26 09:30 56.25817 17.13755 37170 ft 518 kts 184°
2026-04-26 09:31 56.18603 17.14037 37171 ft 519 kts 184°
2026-04-26 09:31 56.11384 17.14318 37176 ft 519 kts 184°
2026-04-26 09:32 56.04162 17.14598 37179 ft 519 kts 184°
2026-04-26 09:32 55.96985 17.14876 37183 ft 519 kts 184°
2026-04-26 09:33 55.89748 17.15154 37186 ft 520 kts 184°
2026-04-26 09:33 55.82516 17.15432 37187 ft 520 kts 184°
2026-04-26 09:34 55.75283 17.15709 37193 ft 520 kts 184°
2026-04-26 09:34 55.68048 17.15985 37195 ft 520 kts 184°
2026-04-26 09:35 55.60798 17.16709 37200 ft 524 kts 178°
2026-04-26 09:35 55.53554 17.18199 37198 ft 524 kts 178°
2026-04-26 09:36 55.46313 17.19672 37201 ft 524 kts 178°
2026-04-26 09:36 55.39072 17.21124 37202 ft 523 kts 178°
2026-04-26 09:37 55.31827 17.22568 37204 ft 523 kts 178°
2026-04-26 09:37 55.24591 17.24005 37206 ft 523 kts 178°
2026-04-26 09:38 55.17397 17.25428 37207 ft 523 kts 178°
2026-04-26 09:38 55.10166 17.26854 37208 ft 523 kts 178°
2026-04-26 09:39 55.02936 17.28275 37207 ft 523 kts 178°
2026-04-26 09:39 54.95700 17.29691 37212 ft 523 kts 178°
2026-04-26 09:40 54.88482 17.31099 37209 ft 522 kts 178°
2026-04-26 09:40 54.81258 17.32503 37209 ft 522 kts 178°
2026-04-26 09:41 54.74028 17.33903 37209 ft 522 kts 178°
2026-04-26 09:41 54.66808 17.35296 37225 ft 522 kts 178°
2026-04-26 09:42 54.59589 17.36683 37220 ft 522 kts 178°
2026-04-26 09:42 54.52368 17.38066 37223 ft 522 kts 178°
2026-04-26 09:43 54.45151 17.39443 37222 ft 522 kts 178°
2026-04-26 09:43 54.37928 17.40704 37221 ft 519 kts 182°
2026-04-26 09:44 54.30736 17.40979 37224 ft 517 kts 184°
2026-04-26 09:44 54.23556 17.41225 37224 ft 516 kts 184°
2026-04-26 09:45 54.16412 17.41483 37218 ft 516 kts 184°
2026-04-26 09:45 54.09233 17.41744 37218 ft 516 kts 184°
2026-04-26 09:46 54.02062 17.42004 37212 ft 515 kts 184°
2026-04-26 09:46 53.94898 17.42262 37212 ft 515 kts 184°
2026-04-26 09:47 53.87734 17.42520 37210 ft 514 kts 184°
2026-04-26 09:47 53.80594 17.42776 37210 ft 513 kts 184°
2026-04-26 09:48 53.73456 17.43031 37207 ft 513 kts 184°
2026-04-26 09:48 53.66314 17.43285 37207 ft 512 kts 184°
2026-04-26 09:49 53.59187 17.43538 37201 ft 512 kts 184°
2026-04-26 09:49 53.52064 17.43790 37205 ft 512 kts 184°
2026-04-26 09:50 53.44939 17.44041 37208 ft 511 kts 185°
2026-04-26 09:50 53.37818 17.44291 37204 ft 511 kts 185°
2026-04-26 09:51 53.30700 17.44540 37208 ft 511 kts 185°
2026-04-26 09:51 53.23594 17.44788 37211 ft 511 kts 185°
2026-04-26 09:52 53.16529 17.45034 37219 ft 510 kts 185°
2026-04-26 09:52 53.05876 17.45403 37209 ft 510 kts 185°
2026-04-26 09:53 52.98769 17.45648 37214 ft 510 kts 185°
2026-04-26 09:53 52.91667 17.45892 37222 ft 510 kts 185°
2026-04-26 09:54 52.84571 17.46135 37229 ft 509 kts 185°
2026-04-26 09:54 52.77484 17.46376 37229 ft 508 kts 185°
2026-04-26 09:55 52.70440 17.46540 37219 ft 505 kts 185°
2026-04-26 09:55 52.63419 17.46682 37213 ft 504 kts 185°
2026-04-26 09:56 52.56387 17.46835 37214 ft 504 kts 185°
2026-04-26 09:56 52.49373 17.46991 37228 ft 503 kts 185°
2026-04-26 09:57 52.42382 17.47146 37227 ft 503 kts 185°
2026-04-26 09:57 52.35392 17.47300 37226 ft 502 kts 185°
2026-04-26 09:58 52.28446 17.47453 37227 ft 502 kts 185°
2026-04-26 09:58 52.21461 17.47606 37227 ft 501 kts 185°
2026-04-26 09:59 52.15666 17.47734 37227 ft 501 kts 185°
2026-04-26 09:59 52.07524 17.47911 37232 ft 500 kts 185°
2026-04-26 10:00 52.00570 17.48063 37239 ft 499 kts 185°
2026-04-26 10:00 51.93616 17.48213 37235 ft 499 kts 185°
2026-04-26 10:01 51.86681 17.48363 37231 ft 498 kts 185°
2026-04-26 10:01 51.79748 17.48513 37229 ft 497 kts 185°
2026-04-26 10:02 51.72890 17.48661 37229 ft 495 kts 185°
2026-04-26 10:02 51.65995 17.48808 37231 ft 495 kts 185°
2026-04-26 10:03 51.59122 17.48955 37230 ft 493 kts 185°
2026-04-26 10:03 51.52275 17.49102 37224 ft 491 kts 185°
2026-04-26 10:04 51.45443 17.49247 37221 ft 490 kts 185°
2026-04-26 10:04 51.38646 17.49390 37215 ft 488 kts 185°
2026-04-26 10:05 51.31857 17.49533 37221 ft 487 kts 185°
2026-04-26 10:05 51.25082 17.49675 37219 ft 486 kts 185°
2026-04-26 10:06 51.18323 17.49817 37222 ft 485 kts 185°
2026-04-26 10:06 51.11569 17.49959 37223 ft 484 kts 185°
2026-04-26 10:07 51.04834 17.50099 37232 ft 484 kts 185°
2026-04-26 10:07 50.98101 17.50239 37223 ft 483 kts 185°
2026-04-26 10:08 50.91384 17.50378 37224 ft 482 kts 185°
2026-04-26 10:08 50.84714 17.50516 37221 ft 482 kts 185°
2026-04-26 10:09 50.79097 17.50632 37233 ft 481 kts 185°
2026-04-26 10:09 50.72402 17.50770 37221 ft 481 kts 185°
2026-04-26 10:10 50.65706 17.50907 37225 ft 480 kts 185°
2026-04-26 10:10 50.59057 17.51042 37228 ft 480 kts 185°
2026-04-26 10:11 50.52373 17.51179 37225 ft 480 kts 185°
2026-04-26 10:11 50.45687 17.51315 37231 ft 480 kts 185°
2026-04-26 10:12 50.39018 17.51451 37242 ft 479 kts 185°
2026-04-26 10:12 50.32362 17.51576 37232 ft 477 kts 186°
2026-04-26 10:13 50.25877 17.50437 37229 ft 463 kts 199°
2026-04-26 10:13 50.19838 17.47304 37229 ft 454 kts 208°
2026-04-26 10:14 50.14033 17.43646 37224 ft 452 kts 208°
2026-04-26 10:14 50.08186 17.40013 37220 ft 452 kts 208°
2026-04-26 10:15 50.02307 17.36384 37225 ft 452 kts 208°
2026-04-26 10:15 49.96572 17.32863 37212 ft 432 kts 208°
2026-04-26 10:16 49.93828 17.31189 37211 ft 415 kts 208°
2026-04-26 10:16 49.91171 17.29565 37216 ft 408 kts 208°
2026-04-26 10:16 49.85822 17.26262 37209 ft 419 kts 208°
2026-04-26 10:17 49.83075 17.24570 37030 ft 430 kts 208°
2026-04-26 10:17 49.80255 17.22838 36774 ft 442 kts 208°
2026-04-26 10:17 49.77384 17.21087 36508 ft 444 kts 208°
2026-04-26 10:17 49.74515 17.19348 36205 ft 440 kts 208°
2026-04-26 10:18 49.71662 17.17618 35602 ft 440 kts 208°
2026-04-26 10:18 49.68813 17.15891 35043 ft 438 kts 208°
2026-04-26 10:18 49.66004 17.14191 34747 ft 430 kts 208°
2026-04-26 10:18 49.63234 17.12516 34279 ft 426 kts 208°
2026-04-26 10:19 49.60482 17.10849 33726 ft 423 kts 208°
2026-04-26 10:19 49.57754 17.09199 33223 ft 419 kts 208°
2026-04-26 10:19 49.55048 17.07565 32718 ft 416 kts 208°
2026-04-26 10:19 49.52358 17.05942 32204 ft 413 kts 208°
2026-04-26 10:20 49.49695 17.04338 31737 ft 409 kts 208°
2026-04-26 10:20 49.47056 17.02750 31260 ft 406 kts 208°
2026-04-26 10:20 49.44435 17.01175 30786 ft 403 kts 208°
2026-04-26 10:20 49.41833 16.99612 30315 ft 400 kts 209°
2026-04-26 10:21 49.39279 16.98081 29807 ft 397 kts 209°
2026-04-26 10:21 49.36717 16.96546 29284 ft 394 kts 209°
2026-04-26 10:21 49.34173 16.95023 28762 ft 391 kts 208°
2026-04-26 10:21 49.31639 16.93508 28253 ft 389 kts 208°
2026-04-26 10:22 49.29128 16.92007 27761 ft 386 kts 208°
2026-04-26 10:22 49.26634 16.90520 27278 ft 383 kts 208°
2026-04-26 10:22 49.24157 16.89043 26808 ft 381 kts 208°
2026-04-26 10:22 49.21692 16.87576 26314 ft 379 kts 208°
2026-04-26 10:23 49.19242 16.86119 25858 ft 377 kts 208°
2026-04-26 10:23 49.16800 16.84668 25412 ft 375 kts 208°
2026-04-26 10:23 49.14375 16.83229 24971 ft 373 kts 208°
2026-04-26 10:23 49.11961 16.81797 24532 ft 371 kts 208°
2026-04-26 10:24 49.09563 16.80377 24127 ft 369 kts 208°
2026-04-26 10:24 49.07170 16.78962 23658 ft 368 kts 208°
2026-04-26 10:24 49.04788 16.77555 23189 ft 366 kts 208°
2026-04-26 10:24 49.02421 16.76159 22736 ft 364 kts 208°
2026-04-26 10:25 49.00068 16.74773 22276 ft 361 kts 208°
2026-04-26 10:25 48.97729 16.73395 21832 ft 359 kts 208°
2026-04-26 10:25 48.95402 16.72024 21375 ft 358 kts 208°
2026-04-26 10:25 48.93086 16.70661 20948 ft 356 kts 207°
2026-04-26 10:26 48.90783 16.69308 20529 ft 354 kts 207°
2026-04-26 10:26 48.88492 16.67964 20107 ft 352 kts 207°
2026-04-26 10:26 48.86211 16.66626 19688 ft 351 kts 207°
2026-04-26 10:26 48.83938 16.65294 19287 ft 349 kts 207°
2026-04-26 10:27 48.81676 16.63970 18887 ft 347 kts 207°
2026-04-26 10:27 48.79367 16.62857 18472 ft 352 kts 195°
2026-04-26 10:27 48.76931 16.62671 18026 ft 358 kts 178°
2026-04-26 10:27 48.74478 16.63378 17611 ft 358 kts 171°
2026-04-26 10:28 48.72047 16.64197 17214 ft 355 kts 171°
2026-04-26 10:28 48.69647 16.64998 16832 ft 353 kts 171°
2026-04-26 10:28 48.67251 16.65791 16420 ft 351 kts 171°
2026-04-26 10:28 48.64875 16.66572 16040 ft 348 kts 171°
2026-04-26 10:29 48.62520 16.67344 15733 ft 343 kts 171°
2026-04-26 10:29 48.60186 16.68108 15509 ft 344 kts 171°
2026-04-26 10:29 48.57829 16.68339 15291 ft 336 kts 193°
2026-04-26 10:29 48.55663 16.67272 15081 ft 322 kts 217°
2026-04-26 10:30 48.53848 16.65360 14877 ft 316 kts 224°
2026-04-26 10:30 48.52151 16.63279 14684 ft 313 kts 226°
2026-04-26 10:30 48.50468 16.61199 14484 ft 313 kts 225°
2026-04-26 10:30 48.48768 16.59156 14286 ft 312 kts 224°
2026-04-26 10:31 48.46904 16.57444 14074 ft 320 kts 205°
2026-04-26 10:31 48.44684 16.56902 13860 ft 330 kts 181°
2026-04-26 10:31 48.42408 16.57524 13655 ft 333 kts 167°
2026-04-26 10:31 48.40190 16.58543 13437 ft 333 kts 165°
2026-04-26 10:32 48.37994 16.59618 13230 ft 331 kts 165°
2026-04-26 10:32 48.35803 16.60650 13007 ft 329 kts 166°
2026-04-26 10:32 48.33606 16.61634 12807 ft 328 kts 166°
2026-04-26 10:32 48.31440 16.62568 12600 ft 327 kts 167°
2026-04-26 10:33 48.29257 16.63493 12401 ft 325 kts 167°
2026-04-26 10:33 48.27058 16.64417 12183 ft 324 kts 167°
2026-04-26 10:33 48.24915 16.65315 11979 ft 324 kts 167°
2026-04-26 10:33 48.22743 16.66223 11774 ft 323 kts 167°
2026-04-26 10:34 48.20585 16.67127 11567 ft 321 kts 167°
2026-04-26 10:34 48.18435 16.68027 11376 ft 320 kts 167°
2026-04-26 10:34 48.16291 16.68924 11160 ft 319 kts 167°
2026-04-26 10:34 48.14151 16.69817 10954 ft 319 kts 167°
2026-04-26 10:35 48.12014 16.70708 10750 ft 317 kts 167°
2026-04-26 10:35 48.09887 16.71597 10543 ft 317 kts 167°
2026-04-26 10:35 48.07762 16.72482 10350 ft 317 kts 167°
2026-04-26 10:35 48.05642 16.73365 10134 ft 315 kts 167°
2026-04-26 10:36 48.03529 16.74244 9949 ft 313 kts 167°
2026-04-26 10:36 48.01433 16.75114 9640 ft 312 kts 167°
2026-04-26 10:36 47.99345 16.75979 9293 ft 310 kts 167°
2026-04-26 10:36 47.97279 16.76837 9084 ft 309 kts 167°
2026-04-26 10:37 47.95198 16.77697 8885 ft 311 kts 167°
2026-04-26 10:37 47.93121 16.78557 8683 ft 308 kts 167°
2026-04-26 10:37 47.91052 16.79412 8487 ft 308 kts 167°
2026-04-26 10:37 47.88993 16.80262 8286 ft 307 kts 167°
2026-04-26 10:38 47.86939 16.81109 8084 ft 306 kts 167°
2026-04-26 10:38 47.84897 16.81950 7902 ft 304 kts 167°
2026-04-26 10:38 47.82885 16.82778 7691 ft 303 kts 167°
2026-04-26 10:38 47.80854 16.83612 7499 ft 302 kts 167°
2026-04-26 10:39 47.78835 16.84441 7306 ft 300 kts 167°
2026-04-26 10:39 47.76823 16.85267 7121 ft 300 kts 167°
2026-04-26 10:39 47.74814 16.86091 6916 ft 299 kts 167°
2026-04-26 10:39 47.72786 16.86479 6720 ft 292 kts 190°
2026-04-26 10:40 47.70929 16.85612 6600 ft 268 kts 218°
2026-04-26 10:40 47.69696 16.83808 6456 ft 235 kts 248°
2026-04-26 10:40 47.69237 16.81646 6260 ft 212 kts 266°
2026-04-26 10:40 47.69142 16.79529 6078 ft 202 kts 281°
2026-04-26 10:41 47.69541 16.77497 5982 ft 205 kts 299°
2026-04-26 10:41 47.70426 16.75870 5970 ft 204 kts 321°
2026-04-26 10:41 47.71661 16.74842 5832 ft 204 kts 335°
2026-04-26 10:41 47.73015 16.74164 5507 ft 206 kts 340°
2026-04-26 10:42 47.74395 16.73603 5320 ft 206 kts 341°
2026-04-26 10:42 47.75328 16.73220 5200 ft 206 kts 341°
2026-04-26 10:42 47.77166 16.72452 4961 ft 208 kts 341°
2026-04-26 10:42 47.78557 16.71871 4768 ft 208 kts 341°
2026-04-26 10:43 47.79924 16.71301 4680 ft 198 kts 341°
2026-04-26 10:43 47.81193 16.70773 4463 ft 183 kts 341°
2026-04-26 10:43 47.82402 16.70262 4271 ft 184 kts 341°
2026-04-26 10:43 47.83657 16.69730 4106 ft 186 kts 341°
2026-04-26 10:44 47.84898 16.69215 3986 ft 184 kts 341°
2026-04-26 10:44 47.86136 16.68699 3986 ft 185 kts 341°
2026-04-26 10:44 47.87374 16.68176 3979 ft 184 kts 340°
2026-04-26 10:44 47.88617 16.67649 3972 ft 185 kts 342°
2026-04-26 10:45 47.89828 16.67153 3939 ft 171 kts 341°
2026-04-26 10:45 47.90903 16.66708 3868 ft 149 kts 341°
2026-04-26 10:45 47.91841 16.66312 3803 ft 133 kts 339°
2026-04-26 10:45 47.92681 16.65957 3690 ft 118 kts 339°
2026-04-26 10:46 47.93517 16.65598 3651 ft 128 kts 340°
2026-04-26 10:46 47.94375 16.65238 3589 ft 128 kts 340°
2026-04-26 10:46 47.95233 16.64878 3453 ft 127 kts 340°
2026-04-26 10:46 47.96103 16.64512 3313 ft 131 kts 340°
2026-04-26 10:47 47.96975 16.64144 3147 ft 128 kts 340°
2026-04-26 10:47 47.97830 16.63785 2986 ft 129 kts 340°
2026-04-26 10:47 47.98700 16.63417 2855 ft 132 kts 339°
2026-04-26 10:47 47.99580 16.63049 2659 ft 128 kts 340°
2026-04-26 10:48 48.00415 16.62703 2487 ft 122 kts 340°
2026-04-26 10:48 48.01259 16.62341 2325 ft 127 kts 340°
2026-04-26 10:48 48.02102 16.61986 2163 ft 125 kts 340°
2026-04-26 10:48 48.02948 16.61629 2000 ft 127 kts 340°
2026-04-26 10:49 48.03795 16.61268 1829 ft 127 kts 340°
2026-04-26 10:49 48.04361 16.61031 1687 ft 123 kts 340°
2026-04-26 10:49 48.05471 16.60561 1412 ft 127 kts 342°
2026-04-26 10:49 48.06299 16.60214 1198 ft 119 kts 343°
2026-04-26 10:50 48.07073 16.59887 1017 ft 112 kts 343°
2026-04-26 10:50 48.07561 16.59680 893 ft 111 kts 345°
2026-04-26 10:50 48.08328 16.59357 742 ft 112 kts 347°
2026-04-26 10:50 48.09072 16.59043 621 ft 106 kts 345°
2026-04-26 10:51 48.09536 16.58847 617 ft 45 kts 344°
2026-04-26 10:51 48.10080 16.58622 619 ft 34 kts 345°
2026-04-26 10:51 48.10297 16.58531 618 ft 31 kts 345°
2026-04-26 10:52 48.10497 16.58446 619 ft 29 kts 345°
2026-04-26 10:52 48.10666 16.58346 612 ft 23 kts 329°
2026-04-26 10:52 48.10779 16.58202 621 ft 20 kts 315°
2026-04-26 10:52 48.10873 16.58061 610 ft 18 kts 314°
2026-04-26 10:53 48.10984 16.57965 621 ft 19 kts 342°
2026-04-26 10:53 48.11103 16.57885 622 ft 19 kts 307°
2026-04-26 10:53 48.11166 16.57698 613 ft 21 kts 297°
2026-04-26 10:54 48.11299 16.57286 609 ft 19 kts 296°
2026-04-26 10:54 48.11359 16.57103 622 ft 20 kts 296°
2026-04-26 10:54 48.11424 16.56910 612 ft 12 kts 297°
2026-04-26 10:54 48.11464 16.56894 623 ft 3 kts 355°
2026-04-26 10:55 48.11495 16.56894 613 ft 6 kts
2026-04-26 10:55 48.11543 16.56899 622 ft 8 kts
2026-04-26 10:55 48.11612 16.56920 620 ft 6 kts 33°
2026-04-26 10:55 48.11625 16.56931 617 ft 5 kts 29°
2026-04-26 10:56 48.11655 16.56953 615 ft 7 kts 26°
2026-04-26 10:56 48.11657 16.56955 616 ft 0 kts 26°